Regional Weather Roundup
Issued by NWS

Home | Current Version | Previous Version | Graphics & Text | Print | Product List | Glossary On
Versions: 1 2 3 4 5 6 7 8 9 10 11 12 13 14 15 16 17 18 19 20 21 22 23 24 25 26 27 28 29 30 31 32 33 34 35 36 37 38 39 40 41 42 43 44 45 46 47 48 49 50
000
ASUS43 KIND 260809
RWRIN

WEATHER ROUNDUP FOR INDIANA
NATIONAL WEATHER SERVICE INDIANAPOLIS IN
400 AM EDT THU APR 26 2018

NOTE: "FAIR" INDICATES FEW OR NO CLOUDS BELOW 12,000 FEET WITH NO
SIGNIFICANT WEATHER AND/OR OBSTRUCTIONS TO VISIBILITY.

* - STATION DOES NOT REPORT WEATHER SUCH AS PRECIPITATION OR FOG.

+ - STATION NOT QUALITY CONTROLLED BY THE NATIONAL WEATHER SERVICE.
    USE DATA WITH CAUTION...ESPECIALLY DEWPOINT AND RELATIVE
    HUMIDITY OBSERVATIONS.

INZ001>003-010>013-019-020-260900-
NORTHWEST INDIANA

CITY           SKY/WX    TMP DP  RH WIND       PRES   REMARKS
GARY /AIRPORT/ FAIR      32  32 100 CALM      29.97S
KNOX *+        FAIR      30  28  93 CALM      29.95S
LA PORTE +     FAIR      34  32  92 N7        29.95S WCI  28
MICHIGAN CITY+ FAIR      32  32 100 CALM      29.96F
MONTICELLO +   FAIR      29  26  88 CALM      29.95S
RENSSELAER +   FAIR      32  28  86 CALM      29.96S
VALPARAISO     FAIR      37  31  78 N6        29.95F WCI  32

$$

LMZ046-743>745-260900-
SOUTHERN LAKE MICHIGAN

STATION/POSITION TIME  TEMP    WIND        PRES    WAVE
                       AIR SEA DIR/SP/G            HT
                 (UTC) (F)     (DEG/KT/KT) (MB)    (FT)
BURNS HARBOR     0740   40     350/  6/  8 1014.9F
MICHIGAN CITY    0740   38     330/  5/  6   N/A

$$

INZ004-005-014>016-021>024-260900-
NORTH CENTRAL INDIANA

CITY           SKY/WX    TMP DP  RH WIND       PRES   REMARKS
GOSHEN         FAIR      35  30  82 NW3       29.93F
LOGANSPORT +   FAIR      32  28  86 CALM      29.95F
PERU/GRISSOM   FAIR      35  33  92 W5        29.92F WCI  31
ROCHESTER +    FAIR      36  32  87 CALM      29.94F
SOUTH BEND     FAIR      33  28  81 N5        29.95F WCI  29
WARSAW +       FAIR      34  30  86 CALM      29.93F

$$

INZ006>009-017-018-025>027-260900-
NORTHEAST INDIANA

CITY           SKY/WX    TMP DP  RH WIND       PRES   REMARKS
ANGOLA *+      CLOUDY    41  36  81 CALM      29.92S
AUBURN +       FAIR      36  32  87 CALM      29.93S
FORT WAYNE     FAIR      35  31  85 NW5       29.93S WCI  31
HUNTINGTON +   FAIR      35  29  80 CALM      29.93S
KENDALLVILLE + FAIR      35  29  79 N3        29.93S

$$

INZ028-029-035-036-043>045-051>053-260900-
WEST CENTRAL INDIANA

CITY           SKY/WX    TMP DP  RH WIND       PRES   REMARKS
CRAWFORDSVL +  FAIR      36  31  81 N7        29.94F WCI  30
GREENCASTLE +  FAIR      41  30  65 CALM      29.93F
LAFAYETTE      FAIR      34  29  82 CALM      29.94F
TERRE HAUTE    FAIR      45  33  63 NE5       29.95S

$$

INZ030>032-037>040-046>048-054>057-064-065-260900-
CENTRAL INDIANA

CITY           SKY/WX    TMP DP  RH WIND       PRES   REMARKS
FISHERS *+     FAIR      36  34  93 CALM      29.92F
FRANKFORT +    FAIR      37  31  77 N5        29.95F WCI  34
GREENWOOD *+   FAIR      42  30  63 N5        29.93F
INDIANAPOLIS   MOCLDY    42  30  62 N10       29.92F
-EAGLE CREEK   FAIR      43  30  60 N7        29.92F
KOKOMO +       FAIR      35  29  78 NW6       29.93F WCI  30
MARION +       FAIR      35  29  80 CALM      29.93F
MT COMFORT *+  FAIR      37  34  87 N6        29.92F WCI  33
SHELBYVILLE    FAIR      40  32  73 N3        29.92S
ZIONSVILLE +   FAIR      36  31  82 CALM      29.93F

$$

INZ033-034-041-042-049-050-058-059-260900-
EAST CENTRAL INDIANA

CITY           SKY/WX    TMP DP  RH WIND       PRES   REMARKS
MUNCIE         FAIR      38  29  70 NW5       29.92S WCI  34
RICHMOND +     FAIR      37  32  81 NW5       29.91S WCI  34

$$

INZ060-061-067>069-081>083-085>088-260900-
SOUTHWEST INDIANA

CITY           SKY/WX    TMP DP  RH WIND       PRES   REMARKS
EVANSVILLE     CLOUDY    54  40  59 N8        29.91S
HUNTINGBURG +  FAIR      51  38  60 NE8       29.91F
WASHINGTON +   FAIR      48  34  57 CALM      29.92S

$$

INZ062-063-066-070>080-084-089>092-260900-
SOUTH CENTRAL AND SOUTHEAST INDIANA

CITY           SKY/WX    TMP DP  RH WIND       PRES   REMARKS
BATESVILLE +   CLEAR     41  34  75 MISG      29.91F
BEDFORD +      FAIR      48  28  46 CALM      29.92F
BLOOMINGTON    FAIR      46  32  58 N5        29.92F
FRENCH LICK *+ FAIR      50  28  43 NE7       29.91S
MADISON *+     FAIR      46  32  57 CALM      29.93S
NORTH VERNON + FAIR      43  34  70 CALM      29.92F
SEYMOUR +      FAIR      48  32  53 N6        29.92F

$$





USA.gov is the U.S. government's official web portal to all federal, state and local government web resources and services.